Total_Precipitation_Accumulation
0.14 0.41 0.92 1.45 2.43 2.71 2.01 1.17 0.72 0.53 0.53 0.61 0.67 0.80 0.91 1.14 1.60 2.52 2.40 1.93 1.74 1.99 2.19 2.43 2.56 2.38 2.47 2.58 2.60 2.75 3.22 3.43 3.27 2.99 2.88 3.10 3.35 3.57 3.69 3.60 3.62 3.90 4.33 4.54 4.42 4.17 3.96 3.77 3.61
0.30 0.81 1.36 2.04 2.66 2.13 1.59 0.92 0.58 0.45 0.40 0.50 0.54 0.52 0.54 0.65 0.76 1.23 1.81 1.71 1.45 1.53 1.68 1.88 2.16 2.13 2.11 2.28 2.44 2.58 2.92 3.24 3.05 2.87 2.73 3.00 3.35 3.65 3.82 3.82 3.73 3.98 4.37 4.72 4.62 4.31 4.03 3.71 3.43
0.62 1.06 1.59 2.29 2.00 1.44 1.13 0.67 0.49 0.41 0.46 0.57 0.54 0.48 0.61 0.96 0.93 1.24 1.60 1.48 1.33 1.41 1.53 1.89 2.02 1.95 2.01 2.19 2.37 2.46 2.65 2.81 2.73 2.77 2.87 3.14 3.54 3.83 3.90 3.83 3.75 3.86 4.16 4.58 4.71 4.24 3.72 3.40 3.23
0.94 1.36 1.67 1.96 1.33 0.87 0.73 0.60 0.45 0.40 0.56 0.68 0.69 0.62 0.68 0.94 1.07 1.25 1.36 1.30 1.35 1.55 1.65 1.84 2.00 1.94 2.11 2.18 2.17 2.32 2.49 2.59 2.73 2.84 2.96 3.27 3.57 3.78 3.79 3.66 3.62 3.77 4.00 4.25 4.32 3.94 3.43 3.26 3.29
1.15 1.54 1.93 1.46 0.90 0.68 0.57 0.47 0.40 0.43 0.51 0.69 0.78 0.91 1.12 1.24 1.13 1.10 1.17 1.24 1.29 1.49 1.73 1.87 1.94 1.82 1.85 1.85 1.96 2.23 2.34 2.46 2.70 2.78 2.93 3.23 3.53 3.69 3.73 3.63 3.75 3.80 4.00 4.19 3.99 3.63 3.40 3.46 3.38
1.32 1.59 1.56 1.08 0.69 0.52 0.43 0.40 0.41 0.43 0.58 0.67 0.73 0.97 1.47 1.57 1.25 1.11 1.22 1.34 1.37 1.46 1.60 1.85 1.90 1.71 1.64 1.72 1.88 2.06 2.21 2.37 2.59 2.68 2.84 3.14 3.46 3.52 3.36 3.41 3.63 3.49 3.75 3.91 3.65 3.45 3.35 3.44 3.45
1.19 1.22 1.02 0.80 0.68 0.57 0.41 0.36 0.46 0.49 0.79 0.92 0.95 1.11 1.58 1.71 1.28 1.16 1.37 1.53 1.55 1.45 1.54 1.72 1.85 1.76 1.69 1.74 1.95 2.10 2.19 2.42 2.62 2.67 2.85 3.23 3.47 3.48 3.31 3.29 3.41 3.46 3.77 3.70 3.38 3.37 3.31 3.32 3.43
0.71 0.76 0.63 0.55 0.59 0.55 0.41 0.34 0.43 0.54 0.72 0.75 0.90 1.18 1.58 1.52 1.19 1.21 1.42 1.60 1.59 1.61 1.68 1.70 1.79 1.70 1.66 1.77 2.12 2.36 2.46 2.73 2.98 3.02 3.21 3.68 3.74 3.65 3.49 3.25 3.39 3.54 3.73 3.64 3.43 3.40 3.39 3.47 3.60
0.63 0.69 0.58 0.45 0.40 0.42 0.33 0.34 0.36 0.53 0.61 0.62 0.77 1.02 1.32 1.15 1.13 1.35 1.64 1.77 1.75 1.77 1.96 1.90 1.89 1.67 1.72 1.75 2.04 2.48 2.66 3.02 3.47 3.69 4.00 4.39 4.40 4.03 3.96 3.50 3.83 3.98 4.07 4.09 3.94 3.88 3.83 3.76 3.80
0.47 0.52 0.35 0.26 0.25 0.30 0.28 0.33 0.37 0.55 0.95 1.09 1.24 1.23 1.15 1.21 1.33 1.45 1.66 1.86 1.96 2.06 1.91 1.96 2.01 1.82 1.88 1.81 2.18 2.89 2.98 3.38 3.87 4.24 4.28 4.55 4.63 4.54 3.91 4.19 4.78 5.04 5.15 5.15 5.05 5.02 4.64 4.00 3.71
0.32 0.29 0.18 0.18 0.19 0.21 0.25 0.32 0.29 0.48 1.13 1.63 1.76 1.43 1.15 1.34 1.57 1.75 1.83 1.92 1.89 2.02 1.83 1.91 2.00 2.12 2.24 2.55 2.40 2.67 3.20 3.85 4.07 4.32 4.61 4.70 4.47 4.29 4.10 4.53 5.24 5.54 5.59 5.49 5.44 5.45 4.83 4.42 4.42
0.23 0.16 0.13 0.13 0.17 0.18 0.22 0.29 0.32 0.47 1.02 1.42 1.43 1.21 1.14 1.43 1.65 1.88 2.04 2.30 2.40 2.37 2.32 2.26 2.46 2.70 2.76 2.62 2.67 2.65 2.87 3.50 4.02 4.29 4.14 4.28 4.73 4.67 4.31 4.43 4.77 5.08 5.25 5.53 5.20 5.11 5.00 4.75 4.42
0.19 0.14 0.14 0.14 0.17 0.19 0.24 0.26 0.37 0.58 0.71 0.78 0.89 0.99 1.20 1.48 1.82 2.21 2.47 2.70 2.77 3.09 3.27 3.20 3.17 3.12 3.22 3.29 3.26 2.93 3.30 3.39 3.46 3.86 3.98 4.00 4.51 4.82 4.76 4.66 4.89 4.56 4.61 4.95 5.02 4.71 4.80 4.82 4.56
0.15 0.13 0.14 0.17 0.19 0.23 0.26 0.32 0.43 0.68 0.73 0.79 0.85 0.92 1.12 1.58 2.10 2.57 2.72 2.89 3.10 3.79 4.31 4.11 3.93 3.70 3.64 3.77 3.89 3.92 3.64 3.65 3.39 3.58 3.81 3.94 4.37 4.75 4.88 4.84 4.95 4.50 4.35 4.51 4.56 4.45 4.71 4.66 4.50
0.17 0.23 0.27 0.24 0.21 0.28 0.38 0.63 0.69 0.81 0.79 0.82 0.94 1.00 1.18 1.62 2.02 2.69 3.12 3.46 3.69 4.45 5.06 4.85 4.70 4.70 4.54 4.50 4.28 3.94 3.74 3.70 3.78 3.87 4.03 4.15 4.29 4.72 4.98 4.92 4.78 4.65 4.61 4.66 4.59 4.57 4.87 4.52 4.28
0.26 0.35 0.51 0.38 0.28 0.31 0.50 1.09 1.00 0.89 0.82 0.94 1.13 1.06 1.13 1.46 1.96 2.64 3.33 3.93 4.29 4.66 5.13 5.47 5.09 5.52 5.55 5.39 5.03 4.54 4.25 4.33 4.22 4.11 4.30 4.13 4.06 4.25 4.79 4.62 4.37 4.63 4.76 4.88 4.85 4.80 4.91 4.91 4.89
0.37 0.42 0.57 0.51 0.33 0.33 0.48 1.09 1.05 0.79 0.82 1.03 1.19 1.19 1.21 1.48 1.87 2.37 3.01 3.66 4.29 4.88 5.46 5.97 6.16 6.27 5.90 5.67 5.45 5.27 4.95 4.67 4.21 3.78 3.72 3.65 3.44 3.41 3.69 3.77 3.89 4.01 4.23 4.18 3.90 4.39 4.69 4.92 5.10
0.36 0.34 0.41 0.57 0.44 0.35 0.47 0.83 0.94 0.84 0.83 1.07 1.25 1.23 1.27 1.49 1.90 2.30 2.84 3.32 4.04 4.97 5.90 6.36 6.52 6.15 5.79 5.54 5.27 5.18 4.79 4.37 3.99 3.60 3.40 3.22 3.18 3.00 3.22 3.11 3.23 3.46 3.79 3.94 4.08 4.40 4.36 4.35 4.59
0.25 0.29 0.33 0.44 0.36 0.37 0.54 0.84 0.97 0.97 0.99 1.12 1.33 1.33 1.33 1.46 1.85 2.31 2.82 3.29 4.01 4.99 6.02 6.49 6.37 5.81 5.36 5.01 4.73 4.48 4.10 3.77 3.63 3.33 3.02 2.99 2.98 3.02 3.34 3.06 3.51 3.54 3.65 3.68 3.65 3.84 3.80 3.66 3.90
0.22 0.30 0.33 0.41 0.33 0.39 0.58 0.95 1.14 1.22 1.26 1.18 1.24 1.36 1.29 1.46 1.92 2.42 2.99 3.37 3.72 4.31 5.14 5.56 5.29 4.74 4.15 3.99 3.94 3.91 3.81 3.38 3.15 3.09 3.10 2.76 2.81 2.95 3.07 3.29 3.20 3.30 3.52 3.41 3.37 3.72 3.70 3.34 3.54
0.22 0.27 0.32 0.39 0.35 0.48 0.68 1.32 1.57 1.48 1.22 0.99 0.90 1.06 1.10 1.20 1.70 2.43 2.98 3.26 3.53 3.81 3.90 4.06 4.02 3.60 3.34 3.30 3.30 3.34 3.54 3.32 3.03 2.95 2.90 2.65 2.57 2.62 2.85 2.95 3.11 3.31 3.17 3.29 3.42 3.51 3.64 3.56 3.49
0.22 0.19 0.20 0.28 0.43 0.69 0.80 1.76 2.05 1.67 1.36 1.08 0.91 0.92 1.01 1.14 1.55 2.29 2.62 2.75 2.80 2.89 2.80 2.92 3.03 2.99 3.01 2.97 3.03 2.90 2.78 2.80 2.69 2.69 2.65 2.64 2.51 2.43 2.38 2.57 2.90 3.08 3.02 3.29 3.04 3.22 3.59 3.72 3.50
0.21 0.16 0.18 0.28 0.49 0.72 0.98 1.59 2.12 1.82 1.56 1.18 0.88 0.86 1.02 1.05 1.26 1.58 1.72 1.87 1.94 2.00 2.06 2.33 2.72 2.90 2.85 2.81 3.01 3.02 2.66 2.52 2.45 2.47 2.67 2.65 2.50 2.36 2.24 2.37 2.65 2.87 2.97 3.09 3.13 3.48 3.45 3.39 3.39
0.17 0.21 0.28 0.48 0.76 1.28 1.28 1.44 1.96 1.80 1.50 1.03 0.82 0.79 0.73 0.77 0.93 1.12 1.23 1.35 1.43 1.48 1.61 1.88 2.33 2.61 2.60 2.64 2.70 2.65 2.61 2.59 2.55 2.52 2.57 2.48 2.38 2.46 2.55 2.51 2.63 2.66 2.79 2.97 3.10 3.29 3.30 3.28 3.33
0.16 0.25 0.60 1.13 1.64 1.75 1.17 1.32 1.75 1.37 1.01 0.74 0.62 0.61 0.64 0.77 0.84 0.98 1.18 1.29 1.25 1.20 1.32 1.51 1.84 2.03 2.08 2.20 2.37 2.48 2.56 2.55 2.38 2.33 2.31 2.23 2.02 2.15 2.44 2.62 2.72 2.76 2.84 2.88 3.04 3.04 3.04 3.12 3.26
0.18 0.24 0.50 0.86 1.01 1.14 1.08 1.64 1.80 1.06 0.79 0.68 0.60 0.58 0.69 0.76 0.74 0.83 0.98 1.03 1.03 1.09 1.17 1.31 1.47 1.58 1.70 1.80 2.01 2.20 2.26 2.25 2.20 2.37 2.24 2.08 1.84 1.77 2.01 2.31 2.45 2.50 2.53 2.59 3.12 2.88 2.82 2.99 3.07
0.18 0.20 0.24 0.35 0.45 0.85 1.28 1.62 1.50 1.00 0.77 0.68 0.60 0.54 0.68 0.70 0.63 0.67 0.78 0.85 0.88 1.03 1.12 1.16 1.28 1.40 1.53 1.63 1.91 2.08 2.10 2.07 2.11 2.22 2.12 1.91 1.90 1.78 1.86 1.94 2.27 2.43 2.45 2.58 2.88 2.81 2.75 2.93 2.90
0.16 0.18 0.21 0.30 0.51 0.85 1.32 1.81 1.77 1.33 0.98 0.82 0.63 0.52 0.59 0.59 0.56 0.63 0.68 0.77 0.76 0.79 0.93 1.06 1.15 1.34 1.54 1.63 1.70 1.72 1.89 1.88 1.88 1.83 1.78 1.85 1.87 1.82 1.90 2.02 2.06 2.21 2.40 2.58 2.79 2.68 2.65 2.78 2.85
0.17 0.15 0.18 0.23 0.33 0.63 1.19 1.53 1.13 0.95 0.79 0.75 0.70 0.63 0.61 0.64 0.65 0.64 0.71 0.73 0.70 0.69 0.85 1.01 1.13 1.28 1.37 1.38 1.42 1.53 1.63 1.63 1.61 1.61 1.58 1.69 1.74 1.79 1.83 1.92 2.04 2.09 2.23 2.54 2.88 2.79 2.83 2.86 2.86
0.14 0.12 0.15 0.21 0.26 0.35 0.73 0.97 0.63 0.65 0.63 0.71 0.74 0.74 0.78 0.86 0.83 0.81 0.85 0.82 0.81 0.82 0.87 1.00 1.04 1.10 1.14 1.18 1.25 1.34 1.48 1.52 1.53 1.56 1.67 1.78 1.81 1.81 1.76 1.87 1.97 1.93 2.07 2.37 2.68 2.81 2.95 3.07 3.02